SCP
0 0 0 0 -0 0 0 0 0 0 0 0 0 -0 0 0 0 0 -0 -0 0 0 0 0 0 0 0 0 -0 -0 -0 -0 0 0 0 -0 0 0 0 0 -0 0 0 0
0 -0 0 0 0 0 0 0 0 0 0 0 0 0 -0 0 0 0 0 -0 0 0 0 0 0 0 0 0 -0 -0 -0 -0 -0 0 -0 -0 -0 0 0 0 0 0 0 0
0 0 0 0 0 0 0 0 0 0 0 0 0 0 -0 0 0 0 0 0 0 -0 -0 -0 -0 -0 -0 -0 -0 -0 -0 -0 -0 -0 0 0 -0 -0 0 0 0 0 0 0
0 0 0 0 0 0 0 0 0 0 0 0 -0 0 0 -0 -0 -0 0 -0 -0 -0 -0 -0 -0 -0 -0 -0 -0 -0 -0 -0 -0 -0 -0 -0 0 -0 -0 -0 0 -0 0 0
0 0 0 0 0 0 0 0 0 0 0 0 0 0 0 0 0 0 0 0 -0 -0 -0 -0 -0 -0 -0 -0 -0 -0 -0 -0 -0 -0 -0 -0 -0 -0 -0 0 0 -0 -0 -0
0 0 0 0 0 0 0 0 0 0 0 0 0 0 0 -0 0 0 0 0 0 -0 -0 -0 -0 -0 -0 -0 -0 -0 -0 -0 -0 -0 -0 -0 -0 -0 -0 -0 -0 0 -0 -0
0 0 -0 0 0 0 0 0 0 0 0 0 0 0 0 0 0 0 0 0 0 0 0 0 -0 -0 -0 -0 -0 -0 -0 -0 -0 -0 -0 -0 -0 -0 -0 -0 -0 -0 0 0
0 0 0 0 0 0 0 0 0 0 0 0 0 0 0 0 0 0 0 -0 0 0 0 0 -0 -0 -0 -0 -0 -0 -0 -0 -0 -0 -0 -0 -0 -0 -0 -0 -0 -0 -0 0
0 0 0 0 0 0 0 0 0 0 0 0 0 0 0 0 0 0 0 0 0 0 0 0 0 0 -0 -0 -0 -0 -0 -0 -0 -0 -0 -0 -0 -0 -0 -0 -0 -0 -0 0
0 0 0 0 0 0 0 0 0 0 0 0 0 0 -0 0 0 0 0 0 0 0 0 0 0 0 0 -0 -0 -0 -0 -0 -0 -0 -0 -0 -0 -0 -0 -0 -0 -0 0 0
0 0 0 0 0 0 0 0 0 0 0 0 0 0 0 0 0 0 0 0 0 0 0 0 0 0 0 0 0 0 -0 -0 -0 -0 -0 -0 -0 -0 -0 -0 -0 -0 -0 -0
0 0 0 -0 -0 -0 0 0 0 0 0 0 0 0 0 0 0 0 0 0 0 0 0 0 0 0 0 0 0 0 0 0 0 0 0 0 -0 -0 -0 -0 -0 -0 0 0
0 0 0 0 0 0 0 0 0 0 0 0 0 0 0 0 0 0 0 0 0 0 0 0 0 0 0 0 0 0 0 0 0 0 0 0 0 0 -0 -0 0 0 0 0
0 0 0 0 0 0 0 0 0 0 0 0 0 0 0 0 0 0 0 0 0 0 0 0 0 0 0 0 0 0 0 0 0 0 0 0 0 0 0 0 0 0 0 0
0 0 0 0 0 0 0 0 0 0 0 0 0 0 0 0 0 0 0 0 0 0 0 0 0 0 0 0 0 0 0 0 0 0 0 0 0 0 0 0 0 0 0 0
-0 0 0 0 0 0 0 0 0 0 0 0 0 0 0 0 0 0 0 0 0 0 0 0 0 0 0 0 0 0 0 0 1 0 0 0 1 0 0 0 0 0 0 0
0 0 0 0 0 0 0 0 0 0 0 0 0 0 0 0 0 0 0 0 0 0 0 0 0 0 0 0 0 0 0 0 0 1 1 0 1 1 1 1 0 0 0 0
0 0 0 0 0 0 0 0 0 0 0 0 0 0 0 0 0 0 0 0 0 0 0 0 -0 -0 0 0 0 0 0 0 0 0 0 1 1 1 1 1 0 0 0 0
0 0 0 0 0 0 0 0 0 0 0 0 0 0 0 0 0 -0 0 0 0 0 0 0 -0 -0 -0 -0 0 0 0 0 0 0 0 0 1 1 1 1 1 1 1 1
0 0 0 0 0 0 0 0 0 0 0 0 0 0 0 0 0 0 0 0 0 0 0 -0 -0 -0 0 -0 0 0 0 0 0 0 1 1 1 1 1 1 1 1 1 0
0 0 0 0 0 0 0 0 0 0 0 0 0 0 0 0 0 0 0 0 0 0 0 -0 -0 -0 0 0 0 0 0 0 0 0 0 1 1 1 1 1 1 0 0 0
0 0 0 0 0 0 0 0 0 0 0 0 0 0 0 0 0 0 0 0 0 0 0 0 -0 -0 -0 0 0 0 0 0 0 0 0 0 0 0 0 0 0 0 0 0
0 0 0 0 0 0 0 0 0 0 0 0 0 0 0 0 0 0 0 0 0 0 0 0 -0 -0 -0 0 0 0 0 0 0 0 0 0 0 0 0 0 0 0 0 0
0 0 0 0 0 0 0 0 0 0 0 -0 -0 0 0 0 0 0 0 0 0 0 0 0 0 -0 -0 -0 0 0 0 0 0 0 0 0 0 0 0 0 0 0 0 0
0 0 0 0 0 0 0 0 -0 0 -0 0 0 0 0 0 0 0 0 0 0 0 0 0 0 -0 -0 -0 0 0 0 0 0 0 0 0 0 0 0 0 0 0 0 0
0 0 0 0 0 0 0 0 0 0 0 0 0 0 0 0 0 0 0 0 0 0 0 0 0 0 0 0 0 0 0 0 0 0 0 0 0 0 0 0 0 0 0 0
Wind_Speed_500mb
40 31 42 50 47 45 39 35 30 26 9 16 27 32 29 34 30 29 31 33 31 31 26 29 28 26 27 29 35 35 33 32 30 41 63 63 65 70 84 77 65 67 58 61
31 44 43 45 47 45 48 47 31 28 4 14 29 32 35 29 27 30 30 35 31 30 31 33 32 31 32 34 35 39 43 41 39 45 67 66 74 84 93 89 69 76 70 68
46 37 40 43 43 44 42 44 37 34 14 19 29 36 37 29 35 26 29 29 28 33 37 39 39 36 35 36 38 45 44 48 47 49 64 61 76 76 88 86 78 85 75 56
38 45 20 40 48 36 41 37 37 32 29 25 25 29 33 38 37 30 36 37 33 32 36 42 43 42 39 39 38 44 47 51 54 55 66 70 77 89 98 98 94 87 77 67
38 19 35 45 38 40 42 31 30 31 34 31 35 17 24 26 26 30 30 40 38 33 38 45 48 45 41 39 42 41 50 54 60 62 65 69 74 79 102 97 94 86 77 78
35 34 28 28 38 37 32 22 22 25 27 30 35 30 23 25 27 20 23 25 32 32 34 40 45 45 43 43 43 44 48 57 59 65 67 72 73 79 94 109 107 94 80 79
40 43 29 26 38 37 36 28 18 22 24 28 28 26 28 7 8 11 10 16 29 25 30 38 48 52 49 50 50 47 52 55 65 70 70 73 82 87 85 99 96 115 90 82
36 29 43 23 30 36 40 36 18 28 22 28 38 16 22 14 4 8 20 24 4 15 25 33 47 53 55 56 56 53 52 53 62 76 75 73 70 82 78 92 100 110 118 109
24 43 19 28 25 31 34 43 41 35 19 15 14 20 23 7 14 11 13 14 18 20 25 28 37 52 56 59 60 59 55 53 55 65 80 80 80 75 78 81 87 97 110 119
27 21 30 29 28 38 43 24 36 22 24 24 21 21 16 17 20 10 7 17 10 5 21 28 33 44 56 58 58 58 57 57 56 57 69 81 84 84 84 86 84 91 99 107
27 22 19 22 35 39 29 36 27 30 29 18 24 18 10 19 22 11 11 14 23 19 14 16 22 33 49 55 59 61 60 60 60 61 61 65 82 82 83 83 96 87 84 94
30 12 22 36 40 39 36 42 40 20 19 24 17 3 15 16 15 13 12 4 11 12 11 11 9 19 37 51 58 62 61 64 64 66 66 69 66 74 87 93 94 97 89 88
25 16 19 29 22 18 28 38 40 39 28 23 19 12 12 9 4 4 15 22 19 21 25 21 8 12 28 42 55 61 61 65 65 65 71 78 81 82 86 91 97 95 97 94
26 21 28 24 23 25 31 13 21 20 20 26 27 25 16 7 20 19 22 28 32 31 32 32 30 18 23 34 48 59 64 63 63 65 73 78 87 90 93 92 95 96 99 95
9 12 23 19 11 10 11 28 22 25 25 19 23 20 16 12 15 23 25 30 37 35 36 39 42 35 31 32 42 51 60 65 67 71 74 86 92 91 82 84 86 92 90 96
14 7 19 16 12 12 14 18 23 26 24 24 28 27 27 28 11 19 25 32 39 44 41 40 41 43 40 40 38 45 54 64 66 72 85 86 79 79 86 86 89 86 89 88
16 13 9 8 14 15 16 29 27 26 28 26 26 18 17 13 12 20 32 37 36 36 47 51 48 45 45 44 37 37 47 51 61 74 81 77 81 83 88 87 81 86 89 82
24 20 19 10 11 9 12 9 6 24 26 22 14 8 8 10 13 21 28 20 30 36 45 52 51 50 47 46 46 46 42 49 59 66 72 74 78 84 80 80 84 84 83 84
29 22 11 11 15 20 11 6 18 15 14 6 3 6 6 12 17 19 24 25 32 36 41 48 53 57 53 48 48 50 50 47 57 64 69 72 76 78 76 78 83 83 77 74
32 25 17 10 23 22 9 6 4 5 14 23 11 9 13 20 13 11 31 29 36 42 44 50 52 51 50 48 47 47 50 52 54 62 71 70 65 69 74 74 70 69 66 69
28 24 27 21 16 13 16 18 1 21 9 19 12 16 22 16 20 26 27 28 32 39 48 51 47 45 48 55 51 45 49 52 55 52 55 59 64 66 66 60 58 76 83 79
26 20 17 25 20 25 16 5 15 17 9 16 17 20 20 24 26 22 23 31 35 42 46 48 49 50 59 61 63 56 44 41 38 46 43 55 61 66 73 81 84 73 73 70
18 20 15 22 17 6 7 15 17 14 15 19 22 23 25 30 33 30 27 34 34 39 41 44 47 52 59 59 55 47 42 49 50 43 50 60 66 62 63 63 65 66 64 60
19 19 9 2 14 18 11 14 14 19 21 22 25 27 28 29 30 29 30 31 34 37 41 47 55 57 60 63 53 43 40 38 38 35 41 46 50 52 51 51 54 57 56 53
14 6 19 16 18 15 15 16 15 19 24 28 30 31 31 31 29 30 30 30 33 35 38 40 50 49 54 50 52 40 28 25 27 31 37 44 45 45 50 49 45 45 44 42
17 13 11 7 21 17 16 19 18 26 28 30 33 33 28 27 27 28 22 26 30 33 38 38 39 40 43 44 40 35 22 10 16 29 35 44 53 48 50 58 57 43 39 39
Wind_Direction_500mb
205 220 225 226 224 246 256 263 276 245 223 210 247 254 242 230 231 227 227 235 221 218 210 200 198 196 195 192 203 209 206 200 183 185 184 172 175 177 167 174 193 184 179 183
251 228 232 239 240 235 242 253 255 266 132 237 264 258 246 238 228 248 226 224 229 214 205 199 196 194 196 191 198 199 206 203 190 189 185 187 183 176 172 180 186 185 184 184
232 234 225 249 235 238 229 241 247 260 224 229 263 265 256 241 251 234 238 240 227 218 209 203 199 199 196 195 199 205 203 205 196 187 188 187 187 182 183 185 189 182 191 197
264 240 228 226 239 226 242 232 245 256 258 256 257 256 244 229 232 212 232 233 230 217 211 206 202 199 201 196 194 202 206 200 200 197 195 194 194 194 189 191 193 190 205 200
238 241 233 243 235 226 244 258 246 234 252 259 258 255 269 270 238 226 235 212 214 222 208 205 203 201 199 194 196 193 206 204 207 207 203 203 199 199 196 193 193 199 211 213
260 266 233 251 248 244 252 216 246 236 244 241 244 256 268 250 231 209 242 225 202 203 210 207 202 199 198 193 194 192 202 206 205 205 206 206 208 204 200 202 204 200 213 214
244 249 230 211 237 233 227 200 210 219 223 234 229 231 236 260 355 305 276 239 199 195 210 205 198 197 196 196 191 192 193 202 211 210 212 213 212 214 215 208 207 205 209 213
232 222 234 189 212 234 209 206 214 215 231 223 216 236 239 224 327 297 265 237 190 199 201 206 204 202 200 199 195 193 195 197 209 212 214 214 212 214 214 217 214 209 216 219
259 237 209 201 203 245 218 224 233 265 250 277 167 215 254 199 229 224 198 202 201 202 201 211 208 208 206 204 201 197 195 197 203 211 214 215 215 219 214 213 216 221 222 219
253 272 242 207 205 218 251 227 221 230 245 238 247 192 251 167 196 12 316 184 218 205 213 211 222 217 211 209 207 202 200 200 201 204 211 216 220 221 220 219 216 221 220 221
250 259 231 219 206 213 213 241 249 230 222 236 236 252 185 94 70 47 329 41 39 24 337 301 240 232 217 212 209 208 204 203 203 205 207 211 215 218 222 226 221 222 224 225
224 286 227 238 215 228 219 216 230 233 212 235 234 336 130 111 79 39 336 297 7 338 344 353 296 233 218 216 215 215 209 206 208 207 208 212 213 215 219 220 223 225 225 223
353 234 244 213 187 218 232 222 231 228 238 217 242 213 172 22 321 313 316 318 310 324 331 329 312 245 225 221 219 221 220 214 210 209 212 214 214 214 219 222 222 224 226 227
323 249 253 236 243 199 212 204 224 236 212 231 229 244 216 266 304 318 325 339 331 322 315 320 317 279 246 231 225 225 225 222 216 214 214 217 221 224 225 224 225 224 224 229
303 280 302 247 323 311 250 191 203 225 232 255 242 246 266 283 282 299 330 331 330 329 335 334 327 321 315 249 239 232 228 223 220 219 218 222 228 226 224 224 227 228 228 227
188 294 306 279 239 256 251 241 239 229 243 242 253 265 277 272 321 306 307 313 317 324 336 335 328 322 317 312 263 247 239 229 223 222 224 226 224 224 225 225 226 226 228 230
279 237 212 265 267 294 262 241 236 237 239 239 244 258 15 345 319 303 299 311 313 325 328 329 326 320 313 306 311 271 253 239 229 229 230 227 225 226 226 225 223 226 228 227
255 250 242 219 199 223 238 54 239 239 247 250 267 305 354 334 307 295 290 350 345 331 328 325 327 327 318 307 299 291 277 253 239 233 231 228 225 225 225 223 224 224 223 225
226 257 268 249 250 272 233 281 235 224 243 139 170 79 30 353 306 268 44 6 342 334 331 327 324 326 327 319 306 290 279 266 249 239 233 229 223 223 222 222 222 222 219 221
202 228 244 205 247 254 277 123 319 253 235 108 60 22 352 349 296 347 357 346 334 333 333 331 329 326 329 329 320 305 283 272 261 247 239 231 225 224 222 222 221 217 215 214
191 201 222 233 246 261 263 155 350 223 105 74 17 2 348 322 325 317 314 321 331 333 333 333 331 331 330 325 325 314 295 278 268 259 247 239 230 223 221 218 218 215 210 211
183 190 207 228 235 241 256 164 245 49 39 27 5 10 347 324 311 308 321 317 327 335 339 338 335 333 331 330 326 324 319 292 265 245 227 223 220 214 211 213 213 213 215 215
200 206 200 194 218 156 118 86 67 29 6 9 6 358 353 347 344 330 319 327 330 335 338 345 341 333 334 333 329 321 298 295 279 262 235 221 217 216 212 212 213 214 208 209
201 238 253 174 198 224 135 83 53 19 4 1 359 350 344 342 338 339 337 336 337 338 339 345 345 341 334 335 332 322 316 295 271 244 232 218 212 215 210 204 196 196 193 193
269 315 242 236 251 270 173 84 37 0 351 348 348 344 340 340 338 338 340 345 345 344 342 345 343 345 340 343 337 324 327 309 256 208 186 174 168 168 172 169 171 176 172 179
250 281 246 256 41 348 51 15 14 2 358 352 348 348 349 350 348 348 354 357 351 350 344 347 349 348 355 352 349 339 342 321 217 168 148 144 142 139 134 131 119 114 127 137
Wind_Speed_850mb
40 31 42 50 47 45 39 35 30 26 9 16 27 32 29 34 30 29 31 33 31 31 26 29 28 26 27 29 35 35 33 32 30 41 63 63 65 70 84 77 65 67 58 61
31 44 43 45 47 45 48 47 31 28 4 14 29 32 35 29 27 30 30 35 31 30 31 33 32 31 32 34 35 39 43 41 39 45 67 66 74 84 93 89 69 76 70 68
46 37 40 43 43 44 42 44 37 34 14 19 29 36 37 29 35 26 29 29 28 33 37 39 39 36 35 36 38 45 44 48 47 49 64 61 76 76 88 86 78 85 75 56
38 45 20 40 48 36 41 37 37 32 29 25 25 29 33 38 37 30 36 37 33 32 36 42 43 42 39 39 38 44 47 51 54 55 66 70 77 89 98 98 94 87 77 67
38 19 35 45 38 40 42 31 30 31 34 31 35 17 24 26 26 30 30 40 38 33 38 45 48 45 41 39 42 41 50 54 60 62 65 69 74 79 102 97 94 86 77 78
35 34 28 28 38 37 32 22 22 25 27 30 35 30 23 25 27 20 23 25 32 32 34 40 45 45 43 43 43 44 48 57 59 65 67 72 73 79 94 109 107 94 80 79
40 43 29 26 38 37 36 28 18 22 24 28 28 26 28 7 8 11 10 16 29 25 30 38 48 52 49 50 50 47 52 55 65 70 70 73 82 87 85 99 96 115 90 82
36 29 43 23 30 36 40 36 18 28 22 28 38 16 22 14 4 8 20 24 4 15 25 33 47 53 55 56 56 53 52 53 62 76 75 73 70 82 78 92 100 110 118 109
24 43 19 28 25 31 34 43 41 35 19 15 14 20 23 7 14 11 13 14 18 20 25 28 37 52 56 59 60 59 55 53 55 65 80 80 80 75 78 81 87 97 110 119
27 21 30 29 28 38 43 24 36 22 24 24 21 21 16 17 20 10 7 17 10 5 21 28 33 44 56 58 58 58 57 57 56 57 69 81 84 84 84 86 84 91 99 107
27 22 19 22 35 39 29 36 27 30 29 18 24 18 10 19 22 11 11 14 23 19 14 16 22 33 49 55 59 61 60 60 60 61 61 65 82 82 83 83 96 87 84 94
30 12 22 36 40 39 36 42 40 20 19 24 17 3 15 16 15 13 12 4 11 12 11 11 9 19 37 51 58 62 61 64 64 66 66 69 66 74 87 93 94 97 89 88
25 16 19 29 22 18 28 38 40 39 28 23 19 12 12 9 4 4 15 22 19 21 25 21 8 12 28 42 55 61 61 65 65 65 71 78 81 82 86 91 97 95 97 94
26 21 28 24 23 25 31 13 21 20 20 26 27 25 16 7 20 19 22 28 32 31 32 32 30 18 23 34 48 59 64 63 63 65 73 78 87 90 93 92 95 96 99 95
9 12 23 19 11 10 11 28 22 25 25 19 23 20 16 12 15 23 25 30 37 35 36 39 42 35 31 32 42 51 60 65 67 71 74 86 92 91 82 84 86 92 90 96
14 7 19 16 12 12 14 18 23 26 24 24 28 27 27 28 11 19 25 32 39 44 41 40 41 43 40 40 38 45 54 64 66 72 85 86 79 79 86 86 89 86 89 88
16 13 9 8 14 15 16 29 27 26 28 26 26 18 17 13 12 20 32 37 36 36 47 51 48 45 45 44 37 37 47 51 61 74 81 77 81 83 88 87 81 86 89 82
24 20 19 10 11 9 12 9 6 24 26 22 14 8 8 10 13 21 28 20 30 36 45 52 51 50 47 46 46 46 42 49 59 66 72 74 78 84 80 80 84 84 83 84
29 22 11 11 15 20 11 6 18 15 14 6 3 6 6 12 17 19 24 25 32 36 41 48 53 57 53 48 48 50 50 47 57 64 69 72 76 78 76 78 83 83 77 74
32 25 17 10 23 22 9 6 4 5 14 23 11 9 13 20 13 11 31 29 36 42 44 50 52 51 50 48 47 47 50 52 54 62 71 70 65 69 74 74 70 69 66 69
28 24 27 21 16 13 16 18 1 21 9 19 12 16 22 16 20 26 27 28 32 39 48 51 47 45 48 55 51 45 49 52 55 52 55 59 64 66 66 60 58 76 83 79
26 20 17 25 20 25 16 5 15 17 9 16 17 20 20 24 26 22 23 31 35 42 46 48 49 50 59 61 63 56 44 41 38 46 43 55 61 66 73 81 84 73 73 70
18 20 15 22 17 6 7 15 17 14 15 19 22 23 25 30 33 30 27 34 34 39 41 44 47 52 59 59 55 47 42 49 50 43 50 60 66 62 63 63 65 66 64 60
19 19 9 2 14 18 11 14 14 19 21 22 25 27 28 29 30 29 30 31 34 37 41 47 55 57 60 63 53 43 40 38 38 35 41 46 50 52 51 51 54 57 56 53
14 6 19 16 18 15 15 16 15 19 24 28 30 31 31 31 29 30 30 30 33 35 38 40 50 49 54 50 52 40 28 25 27 31 37 44 45 45 50 49 45 45 44 42
17 13 11 7 21 17 16 19 18 26 28 30 33 33 28 27 27 28 22 26 30 33 38 38 39 40 43 44 40 35 22 10 16 29 35 44 53 48 50 58 57 43 39 39
Wind_Direction_850mb
205 220 225 226 224 246 256 263 276 245 223 210 247 254 242 230 231 227 227 235 221 218 210 200 198 196 195 192 203 209 206 200 183 185 184 172 175 177 167 174 193 184 179 183
251 228 232 239 240 235 242 253 255 266 132 237 264 258 246 238 228 248 226 224 229 214 205 199 196 194 196 191 198 199 206 203 190 189 185 187 183 176 172 180 186 185 184 184
232 234 225 249 235 238 229 241 247 260 224 229 263 265 256 241 251 234 238 240 227 218 209 203 199 199 196 195 199 205 203 205 196 187 188 187 187 182 183 185 189 182 191 197
264 240 228 226 239 226 242 232 245 256 258 256 257 256 244 229 232 212 232 233 230 217 211 206 202 199 201 196 194 202 206 200 200 197 195 194 194 194 189 191 193 190 205 200
238 241 233 243 235 226 244 258 246 234 252 259 258 255 269 270 238 226 235 212 214 222 208 205 203 201 199 194 196 193 206 204 207 207 203 203 199 199 196 193 193 199 211 213
260 266 233 251 248 244 252 216 246 236 244 241 244 256 268 250 231 209 242 225 202 203 210 207 202 199 198 193 194 192 202 206 205 205 206 206 208 204 200 202 204 200 213 214
244 249 230 211 237 233 227 200 210 219 223 234 229 231 236 260 355 305 276 239 199 195 210 205 198 197 196 196 191 192 193 202 211 210 212 213 212 214 215 208 207 205 209 213
232 222 234 189 212 234 209 206 214 215 231 223 216 236 239 224 327 297 265 237 190 199 201 206 204 202 200 199 195 193 195 197 209 212 214 214 212 214 214 217 214 209 216 219
259 237 209 201 203 245 218 224 233 265 250 277 167 215 254 199 229 224 198 202 201 202 201 211 208 208 206 204 201 197 195 197 203 211 214 215 215 219 214 213 216 221 222 219
253 272 242 207 205 218 251 227 221 230 245 238 247 192 251 167 196 12 316 184 218 205 213 211 222 217 211 209 207 202 200 200 201 204 211 216 220 221 220 219 216 221 220 221
250 259 231 219 206 213 213 241 249 230 222 236 236 252 185 94 70 47 329 41 39 24 337 301 240 232 217 212 209 208 204 203 203 205 207 211 215 218 222 226 221 222 224 225
224 286 227 238 215 228 219 216 230 233 212 235 234 336 130 111 79 39 336 297 7 338 344 353 296 233 218 216 215 215 209 206 208 207 208 212 213 215 219 220 223 225 225 223
353 234 244 213 187 218 232 222 231 228 238 217 242 213 172 22 321 313 316 318 310 324 331 329 312 245 225 221 219 221 220 214 210 209 212 214 214 214 219 222 222 224 226 227
323 249 253 236 243 199 212 204 224 236 212 231 229 244 216 266 304 318 325 339 331 322 315 320 317 279 246 231 225 225 225 222 216 214 214 217 221 224 225 224 225 224 224 229
303 280 302 247 323 311 250 191 203 225 232 255 242 246 266 283 282 299 330 331 330 329 335 334 327 321 315 249 239 232 228 223 220 219 218 222 228 226 224 224 227 228 228 227
188 294 306 279 239 256 251 241 239 229 243 242 253 265 277 272 321 306 307 313 317 324 336 335 328 322 317 312 263 247 239 229 223 222 224 226 224 224 225 225 226 226 228 230
279 237 212 265 267 294 262 241 236 237 239 239 244 258 15 345 319 303 299 311 313 325 328 329 326 320 313 306 311 271 253 239 229 229 230 227 225 226 226 225 223 226 228 227
255 250 242 219 199 223 238 54 239 239 247 250 267 305 354 334 307 295 290 350 345 331 328 325 327 327 318 307 299 291 277 253 239 233 231 228 225 225 225 223 224 224 223 225
226 257 268 249 250 272 233 281 235 224 243 139 170 79 30 353 306 268 44 6 342 334 331 327 324 326 327 319 306 290 279 266 249 239 233 229 223 223 222 222 222 222 219 221
202 228 244 205 247 254 277 123 319 253 235 108 60 22 352 349 296 347 357 346 334 333 333 331 329 326 329 329 320 305 283 272 261 247 239 231 225 224 222 222 221 217 215 214
191 201 222 233 246 261 263 155 350 223 105 74 17 2 348 322 325 317 314 321 331 333 333 333 331 331 330 325 325 314 295 278 268 259 247 239 230 223 221 218 218 215 210 211
183 190 207 228 235 241 256 164 245 49 39 27 5 10 347 324 311 308 321 317 327 335 339 338 335 333 331 330 326 324 319 292 265 245 227 223 220 214 211 213 213 213 215 215
200 206 200 194 218 156 118 86 67 29 6 9 6 358 353 347 344 330 319 327 330 335 338 345 341 333 334 333 329 321 298 295 279 262 235 221 217 216 212 212 213 214 208 209
201 238 253 174 198 224 135 83 53 19 4 1 359 350 344 342 338 339 337 336 337 338 339 345 345 341 334 335 332 322 316 295 271 244 232 218 212 215 210 204 196 196 193 193
269 315 242 236 251 270 173 84 37 0 351 348 348 344 340 340 338 338 340 345 345 344 342 345 343 345 340 343 337 324 327 309 256 208 186 174 168 168 172 169 171 176 172 179
250 281 246 256 41 348 51 15 14 2 358 352 348 348 349 350 348 348 354 357 351 350 344 347 349 348 355 352 349 339 342 321 217 168 148 144 142 139 134 131 119 114 127 137